Rome, GA

1:53 PM EST on November 12, 2019 (GMT -0500)
Russell

Weather History for KRMG - September, 2019

Change the Weather History Date:

Saturday, September 7, 2019

  Actual Average Record
Temperature  
Mean Temperature 82 °F 75 °F  
Max Temperature 96 °F 87 °F 96 °F (1999)
Min Temperature 68 °F 63 °F 7 °F (1996)
Degree Days  
Heating Degree Days 0 0  
Month to date heating degree days 0 0  
Since 1 July heating degree days 0 0  
Cooling Degree Days 17 10  
Month to date cooling degree days 109 74  
Year to date cooling degree days 1868 1440  
Growing Degree Days 32 (Base 50)    
Moisture  
Dew Point 65 °F    
Average Humidity 62    
Maximum Humidity 84    
Minimum Humidity 37    
Precipitation  
Precipitation 0.00 in 0.10 in 1.84 in (2004)
Month to date precipitation 0.00 0.62  
Year to date precipitation 42.45 36.04  
Sea Level Pressure  
Sea Level Pressure 29.92 in    
Wind  
Wind Speed 2 mph ()    
Max Wind Speed 17 mph    
Max Gust Speed 22 mph    
Visibility 10.0 miles    
Events      
T = Trace of Precipitation, MM = Missing Value Source: Averaged Metar Reports

Daily Weather History Graph

Daily Weather History Graph

Search for Another Location

Airport or City:

Astronomy

Sep. 07, 2019 Rise Set
Actual Time 7:18 AM EDT 7:58 PM EDT
Civil Twilight 6:52 AM EDT 8:24 PM EDT
Nautical Twilight 6:22 AM EDT 8:54 PM EDT
Astronomical Twilight 5:51 AM EDT 9:24 PM EDT
Moon 4:01 PM EDT (9/7) 1:20 AM EDT (9/7)
Length of Visible Light 13h 31m
Length of Day
12h 40m
Waxing Gibbous, 65% of the Moon is Illuminated
Sep 7
Waxing Gibbous
Sep 14
Full
Sep 21
Last Quarter
Sep 28
New
Oct 5
First Quarter

Hourly Weather History & Observations

Time (EDT) Temp. Heat Index Dew Point Humidity Pressure Visibility Wind Dir Wind Speed Gust Speed Precip Events Conditions
12:53 AM 70.0 °F - 64.0 °F 81% 29.92 in 10.0 mi Calm Calm - N/A   Clear
1:53 AM 70.0 °F - 64.0 °F 81% 29.93 in 10.0 mi Calm Calm - N/A   Clear
2:53 AM 70.0 °F - 64.0 °F 81% 29.92 in 10.0 mi Calm Calm - N/A   Clear
3:53 AM 69.1 °F - 64.0 °F 84% 29.92 in 10.0 mi Calm Calm - N/A   Clear
4:53 AM 69.1 °F - 64.0 °F 84% 29.92 in 10.0 mi Calm Calm - N/A   Clear
5:53 AM 70.0 °F - 64.0 °F 81% 29.93 in 10.0 mi Calm Calm - N/A   Clear
6:53 AM 69.1 °F - 64.0 °F 84% 29.94 in 10.0 mi NNE 3.5 mph - N/A   Partly Cloudy
7:53 AM 69.1 °F - 64.0 °F 84% 29.95 in 10.0 mi NNE 3.5 mph - N/A   Clear
8:53 AM 73.0 °F - 66.0 °F 79% 29.96 in 10.0 mi Calm Calm - N/A   Clear
9:53 AM 79.0 °F - 69.1 °F 72% 29.96 in 10.0 mi SSW 3.5 mph - N/A   Clear
10:53 AM 84.9 °F 90.1 °F 71.1 °F 63% 29.96 in 10.0 mi Calm Calm - N/A   Clear
11:53 AM 88.0 °F 94.7 °F 72.0 °F 59% 29.96 in 10.0 mi NNE 8.1 mph - N/A   Clear
12:53 PM 90.0 °F 96.9 °F 72.0 °F 55% 29.94 in 10.0 mi NW 4.6 mph - N/A   Scattered Clouds
1:53 PM 91.9 °F 97.4 °F 70.0 °F 48% 29.92 in 10.0 mi North - - N/A   Partly Cloudy
2:53 PM 93.9 °F 99.1 °F 69.1 °F 44% 29.90 in 10.0 mi NW 5.8 mph - N/A   Clear
3:53 PM 93.9 °F 97.0 °F 66.0 °F 40% 29.88 in 10.0 mi NNW 8.1 mph - N/A   Clear
4:53 PM 93.9 °F 96.1 °F 64.9 °F 38% 29.87 in 10.0 mi NNW 10.4 mph - N/A   Partly Cloudy
5:53 PM 93.9 °F 95.6 °F 64.0 °F 37% 29.87 in 10.0 mi NW 8.1 mph - N/A   Scattered Clouds
6:53 PM 91.9 °F 92.9 °F 63.0 °F 38% 29.88 in 10.0 mi NNW 5.8 mph - N/A   Clear
7:53 PM 87.1 °F 87.8 °F 63.0 °F 44% 29.90 in 10.0 mi NW 4.6 mph - N/A   Clear
8:53 PM 82.0 °F 83.0 °F 62.1 °F 51% 29.91 in 10.0 mi NW 4.6 mph - N/A   Clear
9:53 PM 81.0 °F 81.1 °F 57.9 °F 45% 29.92 in 10.0 mi NNW 5.8 mph - N/A   Clear
10:53 PM 78.1 °F - 57.9 °F 50% 29.94 in 10.0 mi Calm Calm - N/A   Clear
11:53 PM 73.0 °F - 59.0 °F 61% 29.95 in 10.0 mi Calm Calm - N/A   Clear